Regional Weather Roundup
Issued by NWS Mobile, AL

Home | Current Version | Previous Version | Text Only | Print | Product List | Glossary On
Versions: 1 2 3 4 5 6 7 8 9 10 11 12 13 14 15 16 17 18 19 20 21 22 23 24 25 26 27 28 29 30 31 32 33 34 35 36 37 38 39 40 41 42 43 44 45 46 47 48 49 50
000
ASUS44 KMOB 192012
RWRMOB
REGIONAL WEATHER ROUNDUP
NATIONAL WEATHER SERVICE MOBILE AL
300 PM CDT THU OCT 19 2017

NOTE: "FAIR" INDICATES FEW OR NO CLOUDS BELOW 12,000 FEET WITH NO
      SIGNIFICANT WEATHER AND/OR OBSTRUCTIONS TO VISIBILITY.

  * THESE STATIONS ARE PART OF THE UNIVERSITY OF SOUTH ALABAMA
    MESONET AND ARE NOT UNDER NWS OR FAA QUALITY CONTROL.

ALZ061>064-192100-
COASTAL ALABAMA

CITY           SKY/WX    TMP DP  RH WIND       PRES   REMARKS
MOBILE REG APT FAIR      81  60  48 E6        30.16F
BROOKLEY FIELD FAIR      81  63  54 NE6       30.17F
USA CAMPUS*    NOT AVBL
DOG RIVER*     NOT AVBL


CITY           SKY/WX    TMP DP  RH WIND       PRES   REMARKS
GULF SHORES    FAIR      81  62  53 NE6       30.14F

$$

ALZ051>060-192100-
INTERIOR SOUTHWEST AND SOUTH CENTRAL ALABAMA

CITY           SKY/WX    TMP DP  RH WIND       PRES   REMARKS
GREENVILLE     FAIR      80  53  39 N8        30.18F
EVERGREEN      FAIR      80  57  45 E9        30.18F
ATMORE*          N/A    N/A N/A N/A N9          N/A
ANDALUSIA/OPP  FAIR      84  55  36 E8        30.17F
ANDALUSIA*       N/A     79  54  41 NE5       30.17F
FLORALA APT    FAIR      80  54  40 E9        30.18F
FLORALA*         N/A     81  57  44 CALM      30.89F

$$

FLZ001>006-192100-
WESTERN FLORIDA PANHANDLE

CITY           SKY/WX    TMP DP  RH WIND       PRES   REMARKS
PENSACOLA      FAIR      83  59  44 NE6       30.14F
NAS PENSACOLA  FAIR      83  58  42 NE12      30.14F
MILTON         FAIR      80  60  50 NE8       30.16F
WHTNG S FIELD  FAIR      84  57  39 NE8       30.15F


CITY           SKY/WX    TMP DP  RH WIND       PRES   REMARKS
JAY*             N/A     77  57  50 N5        30.16F
DUKE FIELD     MOSUNNY   81  55  39 N9        30.14F
CRESTVIEW      FAIR      83  57  41 VRB6      30.16F
VALPARAISO     MOSUNNY   83  54  36 NE8       30.14F
DESTIN         FAIR      85  55  35 NE8       30.14F

$$

MSZ076-079-192100-
INTERIOR SOUTHEAST MISSISSIPPI

CITY           SKY/WX    TMP DP  RH WIND       PRES   REMARKS
LEAKESVILLE*     N/A     79  59  50 E2        30.18F
AGRICOLA*      NOT AVBL

$$

MARINE OBSERVATIONS

STATION/POSITION TIME  TEMP    WIND        PRES    WAVE
                       AIR SEA DIR/SP/G            HT/PER
                 (UTC) (F)     (DEG/KT/KT) (MB)    (FT/S)
PASCAGOULA       1948   78     140/  7/ 12 1020.8F
PETIT BOIS ISLND 1948   76      70/  9/ 11 1021.8F
GRAND BAY        1830   76     110/ 10     1023.0S
KATRINA CUT      1930   75      80/  9     1021.3F
CEDAR POINT      1930   76      70/  6     1021.3F
E DAUPHIN ISLAND 1900   76      80/  8/  9 1021.2F
MIDDLE BAY LIGHT 1930   77     350/  7     1021.0F
USCG MOBILE BAY  1948   78 76   60/  7/  9 1021.2F
STATE DOCKS      1948   81 79              1021.1F
MEAHER PARK      1930   78      50/  4     1021.7F
WEEKS BAY        1845   81                 1022.0S
FORT MORGAN      1948   76     130/ 11/ 13   N/A
12 S ORANGE BCH  1950   75 80   60/ 12/ 14 1020.4F   4/ 6
PENSACOLA BAY    1948   81 75              1021.0F
64 S DAUPHIN ISL 2000   78 82   70/ 17/ 21 1020.0
67 S FORT MORGAN 1930   81      70/ 21     1019.6F

$$

SELECTED LOCATIONS ACROSS THE REGION

CITY           SKY/WX    TMP DP  RH WIND       PRES   REMARKS
NEW ORLEANS    PTSUNNY   82  70  66 E12       30.13F
GULFPORT       FAIR      80  67  64 SE15      30.13F
PASCAGOULA AP  FAIR      82  57  42 E5        30.14F
PASCAGOULA*      N/A     79  63  57 E5          N/A
HATTIESBURG    PTSUNNY   81  61  50 NE6       30.17F
LAUREL         FAIR      80  61  52 E7        30.18F
MERIDIAN       FAIR      81  57  43 NE5       30.18F
JACKSON        PTSUNNY   82  57  42 CALM      30.17F
MONTGOMERY     FAIR      79  52  38 CALM      30.20F
TROY           FAIR      79  58  48 CALM      30.20F
ASHFORD*         N/A     79  54  41 NE5       30.17F
DOTHAN         FAIR      82  58  43 VRB5      30.20F
PANAMA CITY    FAIR      83  55  38 N14       30.13F

$$




USA.gov is the U.S. government's official web portal to all federal, state and local government web resources and services.